This demonstration page uses our WeatherBlox Daily Observations layout. Learn more.

Left ArrowRight Arrow

Hourly Observations for October 9, 2020

Temp ( °F °C ) Dew Point ( °F °C ) Humidity (%) Winds ( mph kmh ) Pressure ( in mb ) Visibility ( mi km ) Precip ( " mm )
12:53 am 00:53 Clear 70 21.1 54 12.2 57 57 S 13 20 29.80 1009 10 16 0.00 0.00
1:53 am 01:53 Clear 68 20 54 12.2 61 61 S 10 17 29.78 1009 10 16 0.00 0.00
3:53 am 03:53 Clear 64 17.8 54 12.2 70 70 S 9 15 29.74 1007 10 16 0.00 0.00
4:53 am 04:53 Clear 63 17.2 53 11.7 70 70 S 8 13 29.73 1007 10 16 0.00 0.00
5:53 am 05:53 Clear 62 16.7 53 11.7 73 73 S 10 17 29.74 1007 10 16 0.00 0.00
6:53 am 06:53 Clear 60 15.6 52 11.1 75 75 S 8 13 29.74 1007 10 16 0.00 0.00
7:53 am 07:53 Sunny 60 15.6 52 11.1 75 75 S 9 15 29.75 1007 10 16 0.00 0.00
8:53 am 08:53 Sunny 62 16.7 53 11.7 73 73 SSW 9 15 29.76 1008 10 16 0.00 0.00
9:53 am 09:53 Sunny 67 19.4 53 11.7 61 61 S 9 15 29.76 1008 10 16 0.00 0.00
10:53 am 10:53 Sunny 72 22.2 52 11.1 50 50 SSW 12 19 29.74 1007 10 16 0.00 0.00
11:53 am 11:53 Sunny 76 24.4 51 10.6 42 42 SSW 12 19 29.73 1007 10 16 0.00 0.00
12:53 pm 12:53 Sunny 80 26.7 49 9.4 34 34 S 16 26 29.72 1006 10 16 0.00 0.00
1:53 pm 13:53 Sunny 83 28.3 49 9.4 31 31 SW 16 26 29.71 1006 10 16 0.00 0.00
2:53 pm 14:53 Sunny 87 30.6 48 8.9 26 26 SW 15 24 29.68 1005 10 16 0.00 0.00
3:53 pm 15:53 Sunny 88 31.1 46 7.8 23 23 SSW 13 20 29.67 1005 10 16 0.00 0.00
4:53 pm 16:53 Sunny 88 31.1 47 8.3 24 24 SSW 13 20 29.68 1005 10 16 0.00 0.00
5:53 pm 17:53 Sunny 86 30 45 7.2 24 24 SW 7 11 29.68 1005 10 16 0.00 0.00
6:53 pm 18:53 Sunny 82 27.8 44 6.7 26 26 SW 5 7 29.70 1006 10 16 0.00 0.00
7:53 pm 19:53 Clear 73 22.8 43 6.1 34 34 Calm 29.73 1007 9 14 0.00 0.00
8:53 pm 20:53 Clear 66 18.9 43 6.1 43 43 Calm 29.75 1008 8 13 0.00 0.00
9:53 pm 21:53 Clear 65 18.3 43 6.1 45 45 Calm 29.77 1008 10 16 0.00 0.00
10:53 pm 22:53 Clear 66 18.9 42 5.6 42 42 Calm 29.79 1009 9 14 0.00 0.00
11:53 pm 23:53 Clear 61 16.1 44 6.7 54 54 NNE 3 6 29.80 1009 7 11 0.00 0.00

Powered by AerisWeather